Location: Lane
(33.5226°N, 79.8788°W)
Time: 20:35:18
(UTC+00:00)

Courier 1B Rocket - Pass Details

Date: 11 October 2022
Orbit: 920 x 1202 km, 28.3° (Epoch: 01 December)

Event Time Altitude Azimuth Distance (km) Brightness Sun altitude
Rises 18:23:10 0° 212° (SSW) 4,085 9.0 45.4°
Reaches altitude 10° 18:26:54 10° 197° (SSW) 3,117 8.6 45.0°
Maximum altitude 18:32:14 20° 153° (SSE) 2,416 7.7 44.4°
Drops below altitude 10° 18:37:26 10° 109° (ESE) 3,045 7.6 43.9°
Sets 18:41:01 0° 93° (E) 3,964 8.0 43.5°
